Retour au catalogue

DMSP 5D-2 F13 DEB

ActifSSO
NORAD 40434·DEBRIS·🇺🇸 United States

Lancé Mar 24, 1995 depuis Vandenberg Space Force Base

Loading…

Prochains Passages (prochaines 24 heures)

TLE

FraisSource: Space-Track

Époque: Sep 14, 2026, 10:05 UTC

1 40434U 95015AL  26257.42024290  .00001373  00000-0  64558-3 0  9995
2 40434  99.1275 248.3413 0170088 326.1568  32.8840 14.14427136591979

Suivez DMSP 5D-2 F13 DEB en temps réel avec AllMySat

Download on the App Store